Location: Esp�n
(42.4593°N, 0.2047°W)
Time: 20:16:01
(UTC+00:00)

STARLINK-48 - Pass Details

Date: 07 June 2020
Orbit: 505 x 506 km, 53.0° (Epoch: 13 July)

Event Time Altitude Azimuth Distance (km) Brightness Sun altitude
Exits shadow 01:52:50 32° 277° (W) 894 4.5 -19.7°
Maximum altitude 01:54:13 47° 330° (NNW) 680 4.2 -19.6°
Drops below altitude 10° 01:57:59 10° 45° (NE) 1,724 7.3 -19.3°
Sets 02:00:15 0° 52° (NE) 2,611 8.3 -19.1°
